Regional Weather Roundup
Issued by NWS

Home | Current Version | Previous Version | Text Only | Print | Product List | Glossary On
Versions: 1 2 3 4 5 6 7 8 9 10 11 12 13 14 15 16 17 18 19 20 21 22 23 24 25 26 27 28 29 30 31 32 33 34 35 36 37 38 39 40 41 42 43 44 45 46 47 48 49 50
000
ASUS43 KOAX 240710
RWRNE

WEATHER ROUNDUP FOR NEBRASKA
NATIONAL WEATHER SERVICE OMAHA NE
200 AM CDT SUN MAY 24 2015

NOTES: SATELLITE DATA IS BEING USED TO AUGMENT CLOUD COVER ABOVE
       12000 FEET.
       "FAIR" INDICATES FEW OR NO CLOUDS BELOW 12,000 FEET WITH NO
       SIGNIFICANT WEATHER AND/OR OBSTRUCTIONS TO VISIBILITY.

  * THESE STATIONS DO NOT REPORT WEATHER SUCH AS RAIN...SNOW OR FOG.

NEZ001>004-019>022-054>056-240800-
NEBRASKA PANHANDLE

CITY           SKY/WX    TMP DP  RH WIND       PRES   REMARKS
SCOTTSBLUFF    LGT RAIN  53  52  96 S5        29.92F
ALLIANCE       RAIN      53  52  96 SE14      29.93F FOG
CHADRON        CLOUDY    53  51  93 E7        29.95F
KIMBALL          N/A    N/A N/A N/A MISG        N/A
SIDNEY         CLOUDY    50  49  96 E7        29.94S
$$

NEZ057>060-069>072-079>082-240800-
SOUTHWEST NEBRASKA

CITY           SKY/WX    TMP DP  RH WIND       PRES   REMARKS
NORTH PLATTE   CLOUDY    56  55  97 SE14      29.95R
IMPERIAL       CLOUDY    55  53  93 SE15      29.93S
LEXINGTON      CLOUDY    58  57  97 E15       29.92F FOG
MCCOOK         CLOUDY    57  55  93 SE10      29.94R
OGALLALA       RAIN      55  54  99 SE8       29.94S
$$

NEZ005>010-023>029-035>040-094-240800-
NORTH CENTRAL NEBRASKA

CITY           SKY/WX    TMP DP  RH WIND       PRES   REMARKS
VALENTINE      CLOUDY    54  53  97 E10       30.00F
AINSWORTH      DRIZZLE   55  55 100 E9        30.00F
BROKEN BOW     LGT RAIN  57  56  96 E10       29.96F FOG
O`NEILL        CLOUDY    57  56  99 E9G16     30.00F FOG
ORD            FOG       57  56  96 E8        29.96F VSB 3/4
THEDFORD       CLOUDY    55  55  97 E14       29.97F FOG
$$

NEZ041-046>049-061>064-073>077-083>087-240800-
SOUTH CENTRAL NEBRASKA

CITY           SKY/WX    TMP DP  RH WIND       PRES   REMARKS
GRAND ISLAND   CLOUDY    59  57  93 E10       29.96F
AURORA         CLOUDY    60  60 100 E10       29.96F FOG
HASTINGS       CLOUDY    59  58  96 E9        29.95F
HEBRON         CLOUDY    61  58  91 E7        29.93F
HOLDREGE       CLOUDY    57  56  96 E12       29.94F
KEARNEY *      CLOUDY    57  55  94 E9        29.96F
YORK           CLOUDY    59  59 100 E12       29.96F
$$

NEZ011>018-030>034-042>045-240800-
NORTHEAST NEBRASKA

CITY           SKY/WX    TMP DP  RH WIND       PRES   REMARKS
NORFOLK        CLOUDY    59  58  96 E8        29.99F FOG
ALBION         CLOUDY    59  56  91 E9        29.99F FOG
BLAIR          RAIN      60  58  93 E8        30.01F
COLUMBUS *     CLOUDY    59  54  82 E9        30.02F
FREMONT        CLOUDY    62  60  94 E8        30.01F FOG
TEKAMAH        LGT RAIN  62  60  93 E8        30.02F
WAYNE          LGT RAIN  59  58  97 E8        30.02F
$$

NEZ050>053-065>068-078-088>093-240800-
SOUTHEAST NEBRASKA

CITY           SKY/WX    TMP DP  RH WIND       PRES   REMARKS
LINCOLN        CLOUDY    62  60  93 E10       29.97F
OMAHA EPPLEY   RAIN      61  60  97 E6        30.02F FOG
BEATRICE       LGT RAIN  60  60  97 E7        29.93F
FALLS CITY     LGT RAIN  62  60  93 SE15      29.94F
NEBRASKA CITY  LGT RAIN  60  60  99 E8        29.99F
PLATTSMOUTH    CLOUDY    60  58  93 NE6       30.00F
$$

NEZ044-045-051>053-067-240800-
OMAHA AREA

CITY           SKY/WX    TMP DP  RH WIND       PRES   REMARKS
OMAHA EPPLEY   RAIN      61  60  97 E6        30.02F FOG
BLAIR          RAIN      60  58  93 E8        30.01F
FREMONT        CLOUDY    62  60  94 E8        30.01F FOG
MILLARD        CLOUDY    62  59  92 CALM      30.01F
OFFUTT AFB     LGT RAIN  61  60  96 NE8       29.99F FOG
PLATTSMOUTH    CLOUDY    60  58  93 NE6       30.00F
WAHOO          CLOUDY    61  59  94 E10       29.99F
$$



USA.gov is the U.S. government's official web portal to all federal, state and local government web resources and services.